Location: Dannhausen
(51.8650°N, 10.1026°E)
Time: 13:01:15
(UTC+00:00)

Cosmos 836 Rocket - Pass Details

Date: 09 April 2020
Orbit: 757 x 779 km, 74.1° (Epoch: 02 June)

Event Time Altitude Azimuth Distance (km) Brightness Sun altitude
Rises 21:34:05 0° 335° (NNW) 3,245 9.1 -25.9°
Reaches altitude 10° 21:36:28 10° 336° (NNW) 2,317 8.0 -26.1°
Maximum altitude 21:41:45 85° 65° (ENE) 780 4.4 -26.5°
Enters shadow 21:41:47 85° 79° (E) 780 4.4 -26.5°
